AAL308 KMIA-TXKF

Flight info

Callsign AAL308
Flight time N/A
Altitude 39000
Route FOLZZ3 ZFP DCT BAAGR DCT CNNOR/M077F390 M328 ANTIG POPOP1
Aircraft A319/M-SDE3FGHIRWY/LB1

Departure

Time N/A
Airport Miami International Airport (KMIA)

Arrival

Time 2026-04-22 03:30
Airport L.F. Wade International Airport (TXKF)
Time Latitude Longitude Altitude Speed Heading
2026-04-22 02:59 31.44084 -68.14931 39295 ft 502 kts 54°
2026-04-22 02:59 31.50088 -68.00125 39269 ft 509 kts 70°
2026-04-22 03:00 31.58670 -67.68504 39269 ft 509 kts 69°
2026-04-22 03:00 31.67172 -67.36847 39279 ft 509 kts 69°
2026-04-22 03:01 31.70768 -67.23283 39274 ft 508 kts 70°
2026-04-22 03:01 31.72869 -67.15358 39269 ft 508 kts 69°
2026-04-22 03:02 31.74965 -67.07438 39267 ft 508 kts 70°
2026-04-22 03:02 31.77054 -66.99509 39270 ft 508 kts 70°
2026-04-22 03:03 31.79126 -66.91636 39266 ft 508 kts 70°
2026-04-22 03:03 31.81209 -66.83710 39260 ft 508 kts 70°
2026-04-22 03:04 31.83277 -66.75774 39258 ft 508 kts 70°
2026-04-22 03:04 31.85341 -66.67826 39257 ft 508 kts 70°
2026-04-22 03:05 31.87405 -66.59884 39242 ft 507 kts 70°
2026-04-22 03:05 31.88441 -66.55905 38791 ft 509 kts 70°
2026-04-22 03:05 31.89473 -66.51935 38188 ft 507 kts 70°
2026-04-22 03:05 31.90496 -66.47978 37606 ft 505 kts 70°
2026-04-22 03:06 31.91169 -66.45366 37226 ft 503 kts 70°
2026-04-22 03:06 31.92187 -66.41426 36673 ft 502 kts 70°
2026-04-22 03:06 31.93201 -66.37500 36124 ft 500 kts 70°
2026-04-22 03:06 31.94208 -66.33581 35586 ft 499 kts 70°
2026-04-22 03:07 31.95207 -66.29670 35065 ft 499 kts 70°
2026-04-22 03:07 31.96205 -66.25767 34550 ft 498 kts 70°
2026-04-22 03:07 31.97203 -66.21865 34010 ft 497 kts 70°
2026-04-22 03:07 31.98201 -66.17972 33421 ft 496 kts 70°
2026-04-22 03:08 31.99197 -66.14084 32845 ft 496 kts 70°
2026-04-22 03:08 32.00191 -66.10198 32281 ft 494 kts 70°
2026-04-22 03:08 32.01175 -66.06337 31727 ft 490 kts 70°
2026-04-22 03:08 32.02146 -66.02508 31227 ft 485 kts 71°
2026-04-22 03:09 32.03109 -65.98709 30792 ft 481 kts 70°
2026-04-22 03:09 32.04063 -65.94944 30352 ft 478 kts 70°
2026-04-22 03:09 32.05010 -65.91208 29803 ft 473 kts 70°
2026-04-22 03:09 32.05946 -65.87510 29318 ft 469 kts 70°
2026-04-22 03:10 32.06872 -65.83838 28850 ft 465 kts 70°
2026-04-22 03:10 32.07788 -65.80196 28391 ft 461 kts 70°
2026-04-22 03:10 32.08698 -65.76586 27918 ft 458 kts 70°
2026-04-22 03:10 32.09599 -65.73005 27461 ft 454 kts 70°
2026-04-22 03:11 32.10490 -65.69451 27001 ft 450 kts 70°
2026-04-22 03:11 32.11375 -65.65922 26545 ft 447 kts 70°
2026-04-22 03:11 32.12092 -65.62419 26074 ft 446 kts 79°
2026-04-22 03:11 32.12459 -65.58796 25585 ft 443 kts 81°
2026-04-22 03:12 32.12807 -65.55192 25103 ft 440 kts 81°
2026-04-22 03:12 32.13503 -65.48078 24121 ft 434 kts 81°
2026-04-22 03:12 32.13850 -65.44551 23583 ft 431 kts 81°
2026-04-22 03:13 32.14194 -65.41045 22986 ft 429 kts 81°
2026-04-22 03:13 32.14534 -65.37549 22384 ft 427 kts 81°
2026-04-22 03:13 32.14866 -65.34092 21813 ft 421 kts 81°
2026-04-22 03:13 32.15193 -65.30676 21248 ft 415 kts 81°
2026-04-22 03:14 32.15513 -65.27314 20698 ft 409 kts 81°
2026-04-22 03:14 32.15828 -65.24005 20144 ft 403 kts 81°
2026-04-22 03:14 32.16139 -65.20749 19613 ft 396 kts 81°
2026-04-22 03:14 32.16446 -65.17547 19085 ft 389 kts 81°
2026-04-22 03:15 32.16746 -65.14397 18571 ft 384 kts 80°
2026-04-22 03:15 32.17038 -65.11329 18001 ft 378 kts 81°
2026-04-22 03:15 32.17327 -65.08263 17419 ft 374 kts 81°
2026-04-22 03:15 32.17613 -65.05213 16852 ft 375 kts 81°
2026-04-22 03:16 32.17901 -65.02147 16284 ft 375 kts 81°
2026-04-22 03:16 32.18187 -64.99114 15728 ft 370 kts 81°
2026-04-22 03:16 32.18470 -64.96110 15179 ft 366 kts 81°
2026-04-22 03:16 32.18747 -64.93146 14644 ft 361 kts 81°
2026-04-22 03:17 32.19019 -64.90222 14114 ft 356 kts 81°
2026-04-22 03:17 32.19287 -64.87338 13544 ft 351 kts 81°
2026-04-22 03:17 32.19550 -64.84497 12966 ft 346 kts 81°
2026-04-22 03:17 32.19809 -64.81690 12397 ft 342 kts 81°
2026-04-22 03:18 32.20064 -64.78913 11839 ft 338 kts 81°
2026-04-22 03:18 32.20308 -64.76175 11290 ft 333 kts 81°
2026-04-22 03:18 32.20539 -64.73472 10768 ft 329 kts 82°
2026-04-22 03:18 32.20762 -64.70817 10379 ft 320 kts 82°
2026-04-22 03:19 32.20974 -64.68242 9992 ft 311 kts 81°
2026-04-22 03:19 32.21175 -64.65727 9569 ft 303 kts 82°
2026-04-22 03:19 32.21373 -64.63273 9153 ft 298 kts 82°
2026-04-22 03:19 32.21565 -64.60860 8741 ft 293 kts 82°
2026-04-22 03:20 32.21753 -64.58484 8331 ft 288 kts 82°
2026-04-22 03:20 32.21935 -64.56150 7929 ft 283 kts 81°
2026-04-22 03:20 32.22112 -64.53855 7531 ft 278 kts 81°
2026-04-22 03:20 32.22280 -64.51600 7139 ft 273 kts 81°
2026-04-22 03:21 32.22440 -64.49386 6800 ft 268 kts 81°
2026-04-22 03:21 32.22589 -64.47252 6558 ft 261 kts 81°
2026-04-22 03:21 32.22730 -64.45141 6297 ft 254 kts 82°
2026-04-22 03:21 32.22865 -64.43077 5988 ft 250 kts 81°
2026-04-22 03:22 32.22993 -64.41046 5679 ft 246 kts 81°
2026-04-22 03:22 32.23115 -64.39048 5372 ft 242 kts 81°
2026-04-22 03:22 32.23230 -64.37074 5072 ft 239 kts 82°
2026-04-22 03:22 32.23404 -64.35140 4755 ft 232 kts 70°
2026-04-22 03:23 32.24199 -64.33587 4462 ft 216 kts 35°
2026-04-22 03:23 32.25512 -64.32918 4210 ft 204 kts
2026-04-22 03:23 32.26880 -64.33183 3951 ft 200 kts 335°
2026-04-22 03:23 32.27954 -64.34222 3703 ft 204 kts 307°
2026-04-22 03:24 32.28602 -64.35730 3484 ft 207 kts 298°
2026-04-22 03:24 32.29207 -64.37283 3304 ft 208 kts 298°
2026-04-22 03:24 32.29811 -64.38837 3131 ft 207 kts 298°
2026-04-22 03:24 32.30406 -64.40365 3032 ft 207 kts 299°
2026-04-22 03:25 32.31007 -64.41910 3013 ft 207 kts 299°
2026-04-22 03:25 32.31609 -64.43450 3012 ft 206 kts 299°
2026-04-22 03:25 32.32208 -64.44985 3007 ft 201 kts 299°
2026-04-22 03:25 32.32714 -64.46457 3002 ft 188 kts 289°
2026-04-22 03:26 32.32967 -64.47940 3001 ft 182 kts 287°
2026-04-22 03:26 32.33211 -64.49397 2850 ft 180 kts 286°
2026-04-22 03:26 32.33459 -64.50836 2645 ft 178 kts 287°
2026-04-22 03:26 32.33708 -64.52274 2406 ft 178 kts 286°
2026-04-22 03:27 32.33955 -64.53704 2161 ft 177 kts 287°
2026-04-22 03:27 32.34202 -64.55126 1930 ft 175 kts 288°
2026-04-22 03:27 32.34442 -64.56517 1688 ft 167 kts 288°
2026-04-22 03:27 32.34664 -64.57807 1462 ft 154 kts 288°
2026-04-22 03:28 32.34871 -64.59007 1271 ft 145 kts 289°
2026-04-22 03:28 32.35071 -64.60156 1085 ft 139 kts 288°
2026-04-22 03:28 32.35256 -64.61231 902 ft 129 kts 290°
2026-04-22 03:28 32.35433 -64.62253 734 ft 124 kts 288°
2026-04-22 03:29 32.35603 -64.63233 585 ft 119 kts 287°
2026-04-22 03:29 32.35771 -64.64185 457 ft 119 kts 287°
2026-04-22 03:29 32.35946 -64.65166 264 ft 124 kts 287°
2026-04-22 03:29 32.36106 -64.66162 117 ft 122 kts 288°
2026-04-22 03:30 32.36282 -64.67111 28 ft 108 kts 282°
2026-04-22 03:30 32.36403 -64.67840 28 ft 72 kts 281°
2026-04-22 03:30 32.36476 -64.68290 29 ft 50 kts 282°
2026-04-22 03:30 32.36544 -64.68679 28 ft 45 kts 281°
2026-04-22 03:31 32.36589 -64.68945 27 ft 25 kts 281°
2026-04-22 03:31 32.36616 -64.69111 26 ft 13 kts 280°
2026-04-22 03:31 32.36602 -64.69204 27 ft 10 kts 245°
2026-04-22 03:31 32.36571 -64.69288 29 ft 12 kts 250°
2026-04-22 03:32 32.36540 -64.69385 26 ft 13 kts 245°
2026-04-22 03:32 32.36503 -64.69491 28 ft 15 kts 248°
2026-04-22 03:32 32.36456 -64.69622 27 ft 19 kts 247°
2026-04-22 03:32 32.36406 -64.69767 24 ft 19 kts 247°
2026-04-22 03:33 32.36353 -64.69915 26 ft 18 kts 246°
2026-04-22 03:33 32.36312 -64.70026 26 ft 11 kts 246°
2026-04-22 03:33 32.36279 -64.70118 24 ft 9 kts 248°
2026-04-22 03:33 32.36270 -64.70181 24 ft 7 kts 295°
2026-04-22 03:34 32.36299 -64.70206 24 ft 1 kts 333°
2026-04-22 03:34 32.36316 -64.70215 24 ft 2 kts 334°
2026-04-22 03:34 32.36333 -64.70240 26 ft 6 kts 301°
2026-04-22 03:34 32.36349 -64.70273 24 ft 3 kts 299°
2026-04-22 03:35 32.36348 -64.70302 24 ft 4 kts 244°
2026-04-22 03:35 32.36338 -64.70332 25 ft 4 kts 248°
2026-04-22 03:35 32.36331 -64.70349 24 ft 1 kts 245°
2026-04-22 03:35 32.36331 -64.70351 24 ft 1 kts 244°
2026-04-22 03:36 32.36328 -64.70358 26 ft 0 kts 246°